period_start,C,m1,H,J0,J1,J2,J3,J4,J5,JA,JB,JC,JD,JJ,JK,JN,#
2017-02-12 00:01:12,0.44,10.08,0.00,23.61,26.88,30.45,14.84,55.32,1027.33,2027.29,1296.71,1420.64,1592.44,600.32,601.27,17.80,0000 0000 0000 0000 000000
2017-02-12 00:06:13,0.42,10.10,0.00,23.62,26.89,30.43,14.64,54.99,1027.36,2027.36,1294.39,1418.85,1590.43,600.01,601.08,17.85,0000 0000 0000 0000 000000
2017-02-12 00:11:14,0.45,10.13,0.00,23.63,26.89,30.45,14.72,55.08,1027.36,2027.38,1292.06,1417.09,1588.42,600.40,601.38,17.90,0000 0000 0000 0000 000000
2017-02-12 00:16:15,0.41,10.15,0.00,23.64,26.89,30.43,14.75,55.02,1027.06,2027.33,1289.79,1415.35,1586.43,599.97,600.81,17.95,0000 0000 0000 0000 000000
2017-02-12 00:21:17,0.40,10.17,0.00,23.64,26.90,30.43,14.69,55.23,1026.56,2027.35,1287.53,1413.62,1584.48,600.01,600.59,18.00,0000 0000 0000 0000 000000
2017-02-12 00:26:18,0.46,10.19,0.00,23.64,26.90,30.42,14.74,55.33,1026.39,2027.53,1285.30,1411.94,1582.57,600.37,600.88,18.05,0000 0000 0000 0000 000000
2017-02-12 00:31:20,0.41,10.21,0.00,23.63,26.90,30.43,14.66,55.45,1026.34,2027.63,1283.10,1410.31,1580.72,600.06,600.51,18.10,0000 0000 0000 0000 000000
2017-02-12 00:36:21,0.40,10.23,0.00,23.60,26.90,30.43,14.74,55.65,1026.05,2027.62,1280.92,1408.68,1578.84,600.25,600.52,18.15,0000 0000 0000 0000 000000
2017-02-12 00:41:22,0.38,10.25,0.00,23.55,26.90,30.44,14.65,55.73,1025.89,2027.63,1278.81,1407.15,1577.03,599.98,600.23,18.20,0000 0000 0000 0000 000000
2017-02-12 00:46:23,0.38,10.27,0.00,23.58,26.90,30.43,14.71,55.84,1025.80,2027.56,1276.56,1405.54,1575.19,600.21,600.48,18.25,0000 0000 0000 0000 000000
2017-02-12 00:51:25,0.44,10.29,0.00,23.59,26.90,30.43,14.74,56.11,1025.87,2027.84,1274.35,1403.87,1573.34,600.08,600.34,18.30,0000 0000 0000 0000 000000
2017-02-12 00:56:26,0.38,10.31,0.00,23.51,26.90,30.46,14.66,56.01,1025.90,2027.87,1272.35,1402.42,1571.60,599.43,599.91,18.35,0000 0000 0000 0000 000000
2017-02-12 01:01:27,0.40,10.33,0.00,23.45,26.90,30.54,14.73,55.99,1025.67,2027.90,1270.34,1400.82,1569.86,599.87,600.30,18.40,0000 0000 0000 0000 000000
2017-02-12 01:06:28,0.41,10.35,0.00,23.53,26.90,30.47,14.73,55.81,1025.88,2027.80,1268.17,1399.19,1567.96,599.75,600.24,18.45,0000 0000 0000 0000 000000
2017-02-12 01:11:30,0.44,10.37,0.00,23.53,26.90,30.41,14.73,55.48,1026.05,2027.90,1265.92,1397.48,1565.95,599.81,600.41,18.50,0000 0000 0000 0000 000000
2017-02-12 01:16:31,0.42,10.39,0.00,23.55,26.91,30.40,14.73,55.27,1025.96,2027.92,1263.77,1395.72,1564.01,599.97,600.42,18.55,0000 0000 0000 0000 000000
2017-02-12 01:21:32,0.40,10.42,0.00,23.61,26.92,30.41,14.78,55.48,1026.17,2027.94,1261.62,1394.04,1562.13,600.38,600.81,18.60,0000 0000 0000 0000 000000
2017-02-12 01:26:34,0.43,10.44,0.00,23.60,26.92,30.41,14.73,55.78,1025.97,2027.92,1259.39,1392.29,1560.12,600.28,600.55,18.65,0000 0000 0000 0000 000000
2017-02-12 01:31:36,0.46,10.46,0.00,23.61,26.92,30.41,14.79,55.73,1026.19,2027.91,1257.11,1390.46,1558.04,600.08,600.43,18.70,0000 0000 0000 0000 000000
2017-02-12 01:36:37,0.44,10.48,0.00,23.65,26.94,30.42,14.76,55.35,1026.43,2027.77,1254.73,1388.58,1555.89,600.22,600.69,18.75,0000 0000 0000 0000 000000
2017-02-12 01:41:38,0.46,10.50,0.00,23.66,26.95,30.43,14.65,55.23,1026.46,2027.66,1252.33,1386.68,1553.69,599.89,600.44,18.80,0000 0000 0000 0000 000000
2017-02-12 01:46:39,0.49,10.53,0.00,23.68,26.95,30.42,14.73,55.45,1026.24,2027.58,1249.84,1384.70,1551.47,600.17,600.38,18.85,0000 0000 0000 0000 000000
2017-02-12 01:51:40,0.53,10.56,0.00,23.69,26.96,30.43,14.69,55.42,1026.16,2027.51,1247.13,1382.58,1549.09,599.88,600.13,18.90,0000 0000 0000 0000 000000
2017-02-12 01:56:41,0.50,10.58,0.00,23.72,26.97,30.41,14.79,55.44,1026.36,2027.34,1244.40,1380.47,1546.68,600.38,600.64,18.95,0000 0000 0000 0000 000000
2017-02-12 02:01:43,0.52,10.61,0.00,23.74,26.97,30.42,14.70,55.14,1026.07,2027.23,1241.77,1378.38,1544.35,599.79,599.84,19.00,0000 0000 0000 0000 000000
2017-02-12 02:06:44,0.50,10.63,0.00,23.75,26.97,30.40,14.66,55.19,1025.93,2027.25,1239.15,1376.30,1542.03,599.93,599.91,19.05,0000 0000 0000 0000 000000
2017-02-12 02:11:45,0.50,10.66,0.00,23.77,26.98,30.42,14.72,55.43,1025.97,2027.11,1236.57,1374.26,1539.81,600.20,600.22,19.10,0000 0000 0000 0000 000000
2017-02-12 02:16:47,0.47,10.68,0.00,23.78,27.00,30.42,14.70,55.49,1026.10,2027.07,1234.13,1372.39,1537.65,600.26,600.24,19.15,0000 0000 0000 0000 000000
2017-02-12 02:21:49,0.48,10.71,0.00,23.81,27.00,30.42,14.72,55.51,1025.89,2027.07,1231.63,1370.47,1535.58,600.06,599.94,19.20,0000 0000 0000 0000 000000
2017-02-12 02:26:50,0.47,10.73,0.00,23.82,27.00,30.44,14.71,55.50,1025.89,2027.05,1229.26,1368.60,1533.65,599.93,599.71,19.25,0000 0000 0000 0000 000000
2017-02-12 02:31:51,0.47,10.75,0.00,23.83,27.01,30.43,14.74,55.59,1025.84,2027.04,1226.89,1366.76,1531.59,600.18,599.96,19.30,0000 0000 0000 0000 000000
2017-02-12 02:36:53,0.46,10.78,0.00,23.83,27.02,30.45,14.71,55.53,1025.55,2027.04,1224.52,1364.95,1529.54,599.92,599.51,19.35,0000 0000 0000 0000 000000
2017-02-12 02:41:54,0.45,10.80,0.00,23.84,27.02,30.43,14.62,55.62,1025.75,2027.03,1222.25,1363.15,1527.59,599.80,599.45,19.40,0000 0000 0000 0000 000000
2017-02-12 02:46:55,0.46,10.82,0.00,23.85,27.02,30.44,14.69,55.65,1025.56,2027.00,1219.99,1361.37,1525.53,600.24,599.79,19.45,0000 0000 0000 0000 000000
2017-02-12 02:51:56,0.45,10.85,0.00,23.87,27.04,30.45,14.73,55.45,1025.42,2027.00,1217.66,1359.61,1523.51,600.40,599.82,19.50,0000 0000 0000 0000 000000
2017-02-12 02:56:58,0.45,10.87,0.00,23.86,27.05,30.43,14.65,55.50,1025.41,2027.01,1215.45,1357.80,1521.51,600.14,599.61,19.55,0000 0000 0000 0000 000000
2017-02-12 03:01:59,0.45,10.89,0.00,23.87,27.05,30.43,14.69,55.69,1025.00,2027.00,1213.29,1356.06,1519.53,599.74,598.97,19.60,0000 0000 0000 0000 000000
2017-02-12 03:07:00,0.48,10.92,0.00,23.85,27.05,30.46,14.70,55.68,1025.20,2027.00,1210.90,1354.25,1517.43,600.40,599.72,19.65,0000 0000 0000 0000 000000
2017-02-12 03:12:01,0.49,10.94,0.00,23.87,27.05,30.46,14.65,55.77,1025.26,2027.00,1208.48,1352.38,1515.35,599.88,599.23,19.70,0000 0000 0000 0000 000000
2017-02-12 03:17:02,0.50,10.97,0.00,23.88,27.05,30.43,14.73,55.58,1025.26,2027.00,1206.10,1350.47,1513.18,599.88,599.19,19.75,0000 0000 0000 0000 000000
2017-02-12 03:22:03,0.49,10.99,0.00,23.87,27.07,30.46,14.66,55.64,1025.40,2027.00,1203.65,1348.59,1511.09,600.13,599.55,19.80,0000 0000 0000 0000 000000
2017-02-12 03:27:04,0.50,11.02,0.00,23.89,27.07,30.43,14.77,55.51,1025.11,2027.00,1201.30,1346.70,1508.97,600.07,599.29,19.85,0000 0000 0000 0000 000000
2017-02-12 03:32:06,0.47,11.04,0.00,23.87,27.07,30.45,14.65,55.61,1024.88,2027.00,1199.00,1344.90,1506.91,599.90,598.99,19.90,0000 0000 0000 0000 000000
2017-02-12 03:37:07,0.43,11.07,0.00,23.90,27.07,30.43,14.59,55.70,1024.49,2027.00,1196.65,1343.21,1504.94,599.84,598.85,19.95,0000 0000 0000 0000 000000
2017-02-12 03:42:08,0.48,11.09,0.00,23.90,27.07,30.45,14.65,55.71,1024.57,2027.00,1194.39,1341.58,1503.00,599.88,598.71,20.00,0000 0000 0000 0000 000000
2017-02-12 03:47:09,0.49,11.11,0.00,23.92,27.07,30.41,14.64,55.89,1024.42,2027.00,1192.14,1339.81,1500.96,599.76,598.62,20.05,0000 0000 0000 0000 000000
2017-02-12 03:52:10,0.50,11.14,0.00,23.90,27.07,30.45,14.75,56.00,1024.16,2027.00,1189.75,1337.89,1498.78,600.27,598.90,20.10,0000 0000 0000 0000 000000
2017-02-12 03:57:11,0.54,11.16,0.00,23.91,27.07,30.45,14.66,55.90,1024.15,2027.00,1187.21,1335.87,1496.52,599.99,598.61,20.15,0000 0000 0000 0000 000000
2017-02-12 04:02:13,0.49,11.19,0.00,23.93,27.07,30.42,14.68,55.89,1024.07,2027.00,1184.79,1333.97,1494.42,599.91,598.44,20.20,0000 0000 0000 0000 000000
2017-02-12 04:07:14,0.44,11.21,0.00,23.90,27.07,30.43,14.70,55.82,1024.00,2027.00,1182.58,1332.27,1492.48,600.20,598.75,20.25,0000 0000 0000 0000 000000
2017-02-12 04:12:16,0.44,11.23,0.00,23.92,27.07,30.41,14.71,55.83,1024.02,2027.00,1180.55,1330.62,1490.64,600.15,598.76,20.30,0000 0000 0000 0000 000000
2017-02-12 04:17:17,0.43,11.26,0.00,23.89,27.07,30.42,14.67,55.51,1024.15,2027.00,1178.49,1329.02,1488.82,600.14,598.80,20.35,0000 0000 0000 0000 000000
2017-02-12 04:22:19,0.44,11.28,0.00,23.95,27.07,30.41,14.70,55.70,1023.99,2027.00,1176.41,1327.35,1486.99,600.19,598.65,20.40,0000 0000 0000 0000 000000
2017-02-12 04:27:20,0.42,11.30,0.00,23.90,27.07,30.41,14.68,55.76,1024.13,2027.00,1174.50,1325.72,1485.15,600.12,598.68,20.45,0000 0000 0000 0000 000000
2017-02-12 04:32:21,0.41,11.32,0.00,23.97,27.07,30.41,14.62,55.67,1024.05,2027.00,1172.64,1324.18,1483.42,599.96,598.46,20.50,0000 0000 0000 0000 000000
2017-02-12 04:37:23,0.43,11.34,0.00,23.94,27.07,30.41,14.63,55.63,1024.22,2027.00,1170.76,1322.65,1481.65,599.81,598.45,20.55,0000 0000 0000 0000 000000
2017-02-12 04:42:24,0.36,11.36,0.00,23.97,27.07,30.41,14.73,55.85,1024.40,2027.00,1168.94,1321.15,1480.00,600.11,598.75,20.60,0000 0000 0000 0000 000000
2017-02-12 04:47:26,0.40,11.38,0.00,23.94,27.07,30.42,14.65,55.84,1024.43,2027.00,1167.17,1319.68,1478.36,600.09,598.67,20.65,0000 0000 0000 0000 000000
2017-02-12 04:52:27,0.39,11.40,0.00,23.99,27.07,30.40,14.67,56.01,1024.43,2027.00,1165.39,1318.24,1476.64,600.17,598.75,20.70,0000 0000 0000 0000 000000
2017-02-12 04:57:28,0.43,11.42,0.00,23.94,27.07,30.41,14.69,55.83,1024.44,2027.00,1163.50,1316.67,1474.91,600.12,598.90,20.75,0000 0000 0000 0000 000000
2017-02-12 05:02:30,0.39,11.44,0.00,23.99,27.07,30.38,14.75,55.93,1024.44,2026.99,1161.55,1315.10,1473.16,600.35,598.93,20.80,0000 0000 0000 0000 000000
2017-02-12 05:07:31,0.44,11.46,0.00,23.98,27.07,30.41,14.65,55.88,1024.43,2026.99,1159.63,1313.57,1471.53,600.08,598.82,20.85,0000 0000 0000 0000 000000
2017-02-12 05:12:33,0.41,11.49,0.00,23.96,27.07,30.41,14.60,55.89,1024.38,2026.99,1157.72,1311.98,1469.86,599.78,598.43,20.90,0000 0000 0000 0000 000000
2017-02-12 05:17:34,0.40,11.50,0.00,23.98,27.07,30.41,14.66,56.02,1024.30,2026.99,1155.83,1310.54,1468.26,599.73,598.28,20.95,0000 0000 0000 0000 000000
2017-02-12 05:22:35,0.37,11.53,0.00,24.00,27.07,30.41,14.61,55.98,1024.27,2026.99,1154.08,1309.15,1466.63,599.65,598.35,21.00,0000 0000 0000 0000 000000
2017-02-12 05:27:37,0.39,11.55,0.00,23.96,27.07,30.42,14.63,56.08,1024.02,2026.99,1152.28,1307.77,1465.12,599.82,598.17,21.06,0000 0000 0000 0000 000000
2017-02-12 05:32:38,0.37,11.56,0.00,24.03,27.07,30.39,14.58,55.88,1023.95,2026.99,1150.64,1306.43,1463.60,599.80,598.16,21.11,0000 0000 0000 0000 000000
2017-02-12 05:37:39,0.37,11.58,0.00,24.02,27.07,30.39,14.62,55.88,1023.95,2026.99,1148.90,1304.99,1461.99,599.87,598.18,21.16,0000 0000 0000 0000 000000
2017-02-12 05:42:40,0.40,11.60,0.00,24.03,27.06,30.38,14.67,55.92,1023.97,2026.99,1147.12,1303.58,1460.42,599.80,598.09,21.21,0000 0000 0000 0000 000000
2017-02-12 05:47:41,0.40,11.62,0.00,24.06,27.06,30.38,14.72,55.90,1024.14,2026.99,1145.31,1302.11,1458.71,600.36,598.66,21.26,0000 0000 0000 0000 000000
2017-02-12 05:52:42,0.43,11.64,0.00,24.03,27.05,30.39,14.61,55.92,1024.30,2026.99,1143.47,1300.60,1457.00,599.90,598.32,21.31,0000 0000 0000 0000 000000
2017-02-12 05:57:44,0.45,11.67,0.00,24.02,27.05,30.38,14.60,56.09,1024.40,2026.99,1141.42,1298.97,1455.19,599.64,598.15,21.36,0000 0000 0000 0000 000000
2017-02-12 06:02:45,0.47,11.69,0.00,24.07,27.05,30.37,14.71,56.09,1024.43,2026.99,1139.28,1297.29,1453.26,600.11,598.53,21.41,0000 0000 0000 0000 000000
2017-02-12 06:07:46,0.48,11.71,0.00,24.05,27.05,30.37,14.60,56.06,1024.43,2026.99,1137.19,1295.62,1451.35,599.76,598.51,21.46,0000 0000 0000 0000 000000
2017-02-12 06:12:48,0.40,11.74,0.00,24.03,27.05,30.35,14.66,56.07,1024.40,2026.99,1135.27,1294.10,1449.58,599.78,598.18,21.51,0000 0000 0000 0000 000000
2017-02-12 06:17:49,0.38,11.76,0.00,24.01,27.05,30.36,14.69,56.19,1024.33,2026.99,1133.57,1292.72,1448.06,599.73,598.26,21.56,0000 0000 0000 0000 000000
2017-02-12 06:22:50,0.37,11.77,0.00,24.05,27.05,30.35,14.67,56.38,1024.16,2026.99,1131.90,1291.48,1446.57,600.22,598.51,21.61,0000 0000 0000 0000 000000
2017-02-12 06:27:51,0.36,11.79,0.00,24.02,27.05,30.36,14.69,56.42,1023.98,2026.98,1130.21,1290.08,1445.00,599.90,598.23,21.66,0000 0000 0000 0000 000000
2017-02-12 06:32:52,0.41,11.81,0.00,24.04,27.04,30.35,14.65,56.38,1023.96,2026.98,1128.49,1288.66,1443.45,600.08,598.37,21.71,0000 0000 0000 0000 000000
2017-02-12 06:37:54,0.39,11.83,0.00,24.07,27.04,30.37,14.62,56.51,1023.96,2026.98,1126.69,1287.38,1441.83,599.75,597.94,21.76,0000 0000 0000 0000 000000
2017-02-12 06:42:55,0.34,11.85,0.00,24.06,27.03,30.37,14.74,56.38,1023.96,2026.98,1124.99,1286.07,1440.45,600.17,598.34,21.81,0000 0000 0000 0000 000000
2017-02-12 06:47:57,0.37,11.87,0.00,24.08,27.02,30.36,14.65,56.54,1023.94,2026.98,1123.42,1284.84,1439.04,599.83,598.12,21.86,0000 0000 0000 0000 000000
2017-02-12 06:52:58,0.40,11.89,0.00,24.05,27.02,30.35,14.65,56.38,1023.94,2026.99,1121.71,1283.54,1437.57,599.91,598.09,21.91,0000 0000 0000 0000 000000
2017-02-12 06:57:59,0.33,11.91,0.00,24.11,27.02,30.33,14.70,56.22,1023.94,2026.99,1120.10,1282.34,1436.14,600.26,598.21,21.96,0000 0000 0000 0000 000000
2017-02-12 07:03:00,0.34,11.93,0.00,24.04,27.02,30.34,14.64,56.32,1023.94,2026.99,1118.52,1281.09,1434.72,599.73,598.04,22.01,0000 0000 0000 0000 000000
2017-02-12 07:08:02,0.30,11.94,0.00,24.08,27.02,30.33,14.64,56.35,1023.95,2026.98,1117.16,1279.96,1433.45,600.05,598.16,22.06,0000 0000 0000 0000 000000
2017-02-12 07:13:03,0.26,11.96,0.00,24.06,27.02,30.34,14.65,56.35,1023.97,2026.99,1115.94,1279.02,1432.33,600.12,598.23,22.11,0000 0000 0000 0000 000000
2017-02-12 07:18:04,0.27,11.97,0.00,24.11,27.02,30.33,14.70,56.33,1024.12,2026.99,1114.82,1278.11,1431.28,600.53,598.70,22.16,0000 0000 0000 0000 000000
2017-02-12 07:23:05,0.27,11.98,0.00,24.07,27.01,30.34,14.64,56.38,1024.30,2026.98,1113.68,1277.27,1430.28,599.82,598.26,22.21,0000 0000 0000 0000 000000
2017-02-12 07:28:06,0.26,12.00,0.00,24.04,27.01,30.35,14.62,56.38,1024.00,2026.99,1112.57,1276.41,1429.33,599.92,598.23,22.26,0000 0000 0000 0000 000000
2017-02-12 07:33:08,0.24,12.01,0.00,24.06,27.00,30.33,14.61,56.33,1023.93,2026.98,1111.44,1275.63,1428.30,600.07,598.30,22.31,0000 0000 0000 0000 000000
2017-02-12 07:38:09,0.22,12.02,0.00,24.07,27.00,30.34,14.73,56.30,1023.67,2026.99,1110.37,1274.81,1427.35,600.51,598.56,22.36,0000 0000 0000 0000 000000
2017-02-12 07:43:11,0.22,12.03,0.00,24.08,27.00,30.35,14.70,56.11,1023.58,2026.99,1109.37,1273.96,1426.46,600.36,598.20,22.41,0000 0000 0000 0000 000000
2017-02-12 07:48:12,0.25,12.05,0.00,24.07,27.00,30.35,14.70,56.28,1023.48,2026.99,1108.27,1273.06,1425.42,600.14,598.12,22.46,0000 0000 0000 0000 000000
2017-02-12 07:53:13,0.24,12.06,0.00,24.09,27.00,30.34,14.59,56.27,1023.46,2026.98,1107.19,1272.17,1424.61,600.04,597.85,22.51,0000 0000 0000 0000 000000
2017-02-12 07:58:15,0.22,12.07,0.00,24.09,27.00,30.35,14.66,56.25,1023.45,2026.97,1106.21,1271.51,1423.78,600.04,597.88,22.56,0000 0000 0000 0000 000000
2017-02-12 08:03:16,0.23,12.08,0.00,24.10,27.00,30.34,14.65,56.17,1023.73,2026.97,1105.19,1270.72,1422.83,599.92,597.84,22.61,0000 0000 0000 0000 000000
2017-02-12 08:08:17,0.20,12.09,0.00,24.07,27.00,30.34,14.66,56.21,1023.92,2026.97,1104.18,1269.95,1421.84,599.90,598.02,22.66,0000 0000 0000 0000 000000
2017-02-12 08:13:19,0.24,12.10,0.00,24.11,26.99,30.34,14.64,56.15,1023.97,2026.98,1103.19,1269.10,1420.95,599.81,598.02,22.71,0000 0000 0000 0000 000000
2017-02-12 08:18:20,0.24,12.12,0.00,24.12,26.98,30.34,14.63,55.98,1024.13,2026.99,1102.22,1268.40,1420.07,599.91,598.31,22.76,0000 0000 0000 0000 000000
2017-02-12 08:23:21,0.23,12.13,0.00,24.11,26.97,30.34,14.63,56.10,1024.28,2026.98,1101.21,1267.64,1419.18,599.52,597.66,22.81,0000 0000 0000 0000 000000
2017-02-12 08:28:23,0.22,12.14,0.00,24.09,26.97,30.32,14.73,56.05,1024.42,2026.99,1100.11,1266.83,1418.27,600.22,598.54,22.86,0000 0000 0000 0000 000000
2017-02-12 08:33:24,0.24,12.15,0.00,24.08,26.97,30.30,14.77,56.13,1024.43,2026.99,1098.98,1266.01,1417.32,600.42,598.78,22.91,0000 0000 0000 0000 000000
2017-02-12 08:38:25,0.24,12.16,0.00,24.06,26.97,30.31,14.67,56.29,1024.43,2026.98,1098.00,1265.16,1416.47,600.16,598.68,22.96,0000 0000 0000 0000 000000
2017-02-12 08:43:27,0.29,12.18,0.00,24.09,26.97,30.32,14.72,56.12,1024.43,2026.95,1096.84,1264.32,1415.49,600.16,598.60,23.01,0000 0000 0000 0000 000000
2017-02-12 08:48:28,0.11,12.19,0.00,24.09,26.97,30.31,14.64,56.32,1024.40,2026.96,1095.93,1263.88,1414.83,599.97,598.44,23.06,0000 0000 0000 0000 000000
2017-02-12 08:53:29,0.23,12.20,0.00,24.07,26.96,30.30,14.67,56.26,1024.20,2026.98,1094.96,1263.05,1413.97,600.02,598.34,23.11,0000 0000 0000 0000 000000
2017-02-12 08:58:30,0.25,12.21,0.00,24.10,26.95,30.28,14.67,56.23,1023.96,2026.99,1093.98,1262.24,1413.09,600.29,598.44,23.16,0000 0000 0000 0000 000000
2017-02-12 09:03:32,0.22,12.22,0.00,24.13,26.95,30.29,14.67,56.48,1023.94,2026.99,1093.02,1261.67,1412.27,600.09,598.16,23.21,0000 0000 0000 0000 000000
2017-02-12 09:08:33,0.21,12.23,0.00,24.13,26.95,30.28,14.59,56.48,1023.70,2026.99,1092.03,1260.94,1411.51,599.87,597.70,23.26,0000 0000 0000 0000 000000
2017-02-12 09:13:34,0.23,12.24,0.00,24.13,26.95,30.28,14.66,56.43,1023.51,2026.97,1091.04,1260.08,1410.67,600.28,598.05,23.31,0000 0000 0000 0000 000000
2017-02-12 09:18:36,0.23,12.25,0.00,24.13,26.95,30.30,14.67,56.39,1023.48,2026.98,1090.08,1259.33,1409.82,599.97,597.86,23.36,0000 0000 0000 0000 000000
2017-02-12 09:23:37,0.20,12.26,0.00,24.13,26.95,30.31,14.56,56.34,1023.47,2026.99,1089.14,1258.77,1408.98,599.90,597.60,23.41,0000 0000 0000 0000 000000
2017-02-12 09:28:38,0.21,12.28,0.00,24.18,26.94,30.29,14.70,56.31,1023.47,2026.98,1088.23,1258.01,1408.10,600.00,597.69,23.46,0000 0000 0000 0000 000000
2017-02-12 09:33:39,0.25,12.28,0.00,24.14,26.93,30.30,14.66,56.23,1023.47,2026.97,1087.25,1257.24,1407.44,600.30,598.20,23.51,0000 0000 0000 0000 000000
2017-02-12 09:38:41,0.15,12.29,0.00,24.13,26.92,30.29,14.68,56.08,1023.60,2026.99,1086.70,1256.71,1406.75,600.44,598.25,23.56,0000 0000 0000 0000 000000
2017-02-12 09:43:42,0.16,12.30,0.00,24.12,26.92,30.30,14.69,56.13,1023.90,2026.99,1085.82,1255.99,1405.93,599.94,598.04,23.61,0000 0000 0000 0000 000000
2017-02-12 09:48:43,0.24,12.32,0.00,24.13,26.92,30.30,14.61,56.13,1023.94,2026.99,1084.90,1255.19,1405.10,599.73,597.73,23.66,0000 0000 0000 0000 000000
2017-02-12 09:53:45,0.22,12.32,0.00,24.11,26.92,30.29,14.63,56.14,1023.75,2026.99,1084.03,1254.50,1404.31,600.00,598.04,23.71,0000 0000 0000 0000 000000
2017-02-12 09:58:46,0.19,12.34,0.00,24.12,26.92,30.29,14.71,56.31,1023.47,2026.98,1083.10,1253.85,1403.57,600.25,598.06,23.76,0000 0000 0000 0000 000000
2017-02-12 10:03:47,0.20,12.35,0.00,24.15,26.92,30.28,14.64,56.35,1023.45,2026.99,1082.13,1253.06,1402.87,600.05,597.60,23.81,0000 0000 0000 0000 000000
2017-02-12 10:08:48,0.22,12.36,0.00,24.10,26.92,30.28,14.61,56.28,1023.19,2026.99,1081.40,1252.53,1402.05,599.94,597.66,23.86,0000 0000 0000 0000 000000
2017-02-12 10:13:50,0.19,12.37,0.00,24.11,26.92,30.27,14.69,56.16,1022.96,2026.99,1080.44,1251.93,1401.24,600.07,597.69,23.91,0000 0000 0000 0000 000000
2017-02-12 10:18:51,0.23,12.38,0.00,24.14,26.92,30.27,14.58,56.28,1022.63,2026.99,1079.57,1251.11,1400.50,600.03,597.33,23.96,0000 0000 0000 0000 000000
2017-02-12 10:23:52,0.24,12.39,0.00,24.15,26.92,30.28,14.57,56.23,1022.48,2026.99,1078.59,1250.36,1399.70,600.47,597.77,24.01,0000 0000 0000 0000 000000
2017-02-12 10:28:54,0.19,12.40,0.00,24.15,26.92,30.27,14.64,56.16,1022.47,2026.99,1077.59,1249.77,1398.88,600.09,597.23,24.06,0000 0000 0000 0000 000000
2017-02-12 10:33:55,0.18,12.41,0.00,24.16,26.91,30.27,14.65,56.48,1022.38,2026.99,1076.74,1249.05,1398.04,599.98,597.11,24.11,0000 0000 0000 0000 000000
2017-02-12 10:38:56,0.23,12.42,0.00,24.13,26.91,30.27,14.65,56.19,1022.46,2026.99,1075.86,1248.24,1397.23,599.99,597.14,24.16,0000 0000 0000 0000 000000
2017-02-12 10:43:58,0.20,12.43,0.00,24.18,26.91,30.26,14.67,56.17,1022.48,2026.99,1074.95,1247.72,1396.46,599.87,597.01,24.21,0000 0000 0000 0000 000000
2017-02-12 10:48:59,0.21,12.44,0.00,24.10,26.90,30.25,14.70,56.13,1022.48,2026.99,1074.00,1246.92,1395.68,600.07,597.20,24.27,0000 0000 0000 0000 000000
2017-02-12 10:54:00,0.22,12.46,0.00,24.11,26.90,30.25,14.67,56.09,1022.48,2026.99,1073.07,1246.10,1394.86,599.81,596.98,24.32,0000 0000 0000 0000 000000
2017-02-12 10:59:01,0.24,12.47,0.00,24.09,26.90,30.24,14.66,56.20,1022.42,2026.99,1072.18,1245.43,1394.04,600.06,597.38,24.37,0000 0000 0000 0000 000000
2017-02-12 11:04:02,0.19,12.48,0.00,24.12,26.90,30.24,14.62,55.98,1022.11,2026.99,1071.22,1244.88,1393.16,599.95,596.93,24.42,0000 0000 0000 0000 000000
2017-02-12 11:09:04,0.23,12.49,0.00,24.12,26.90,30.23,14.62,55.99,1022.02,2026.99,1070.39,1244.06,1392.49,600.09,597.03,24.47,0000 0000 0000 0000 000000
2017-02-12 11:14:05,0.21,12.50,0.00,24.11,26.90,30.23,14.59,56.09,1022.00,2026.99,1069.52,1243.48,1391.81,600.04,596.94,24.52,0000 0000 0000 0000 000000
2017-02-12 11:19:06,0.16,12.51,0.00,24.13,26.90,30.23,14.64,56.14,1021.95,2026.99,1068.62,1242.97,1391.04,600.04,596.91,24.57,0000 0000 0000 0000 000000
2017-02-12 11:24:08,0.19,12.52,0.00,24.09,26.90,30.22,14.56,56.13,1021.99,2026.99,1067.90,1242.19,1390.30,599.84,596.80,24.62,0000 0000 0000 0000 000000
2017-02-12 11:29:09,0.18,12.53,0.00,24.10,26.90,30.22,14.64,55.97,1021.96,2026.99,1067.05,1241.76,1389.69,599.98,596.90,24.67,0000 0000 0000 0000 000000
2017-02-12 11:34:10,0.22,12.54,0.00,24.12,26.90,30.21,14.57,56.02,1021.84,2026.99,1066.09,1241.00,1388.75,599.83,596.70,24.72,0000 0000 0000 0000 000000
2017-02-12 11:39:12,0.24,12.55,0.00,24.08,26.89,30.20,14.62,56.05,1021.98,2026.99,1065.15,1240.15,1387.87,599.81,596.86,24.77,0000 0000 0000 0000 000000
2017-02-12 11:44:13,0.24,12.56,0.00,24.15,26.89,30.20,14.62,55.94,1021.98,2026.99,1064.24,1239.46,1387.03,600.16,597.00,24.82,0000 0000 0000 0000 000000
2017-02-12 11:49:14,0.24,12.57,0.00,24.09,26.88,30.19,14.56,56.02,1021.91,2026.99,1063.18,1238.72,1386.12,600.13,597.05,24.87,0000 0000 0000 0000 000000
2017-02-12 11:54:15,0.19,12.58,0.00,24.16,26.87,30.18,14.57,56.17,1021.54,2026.99,1062.46,1238.03,1385.47,599.80,596.34,24.92,0000 0000 0000 0000 000000
2017-02-12 11:59:17,0.24,12.59,0.00,24.09,26.87,30.17,14.61,56.15,1021.28,2026.99,1061.48,1237.39,1384.70,600.15,596.78,24.97,0000 0000 0000 0000 000000
2017-02-12 12:04:18,0.21,12.60,0.00,24.06,26.87,30.16,14.60,56.02,1021.45,2026.99,1060.54,1236.65,1383.91,599.98,596.73,25.02,0000 0000 0000 0000 000000
2017-02-12 12:09:20,0.17,12.62,0.00,24.14,26.87,30.15,14.49,56.01,1021.48,2026.99,1059.65,1236.01,1383.07,599.70,596.23,25.07,0000 0000 0000 0000 000000
2017-02-12 12:14:21,0.23,12.62,0.00,24.03,26.87,30.17,14.62,56.13,1021.30,2026.99,1058.77,1235.37,1382.42,599.79,596.49,25.12,0000 0000 0000 0000 000000
2017-02-12 12:19:22,0.11,12.63,0.00,24.07,26.87,30.15,14.54,55.95,1021.48,2026.99,1057.99,1234.89,1381.78,599.95,596.71,25.17,0000 0000 0000 0000 000000
2017-02-12 12:24:23,0.24,12.65,0.00,24.08,26.87,30.16,14.55,55.84,1021.50,2026.99,1057.13,1234.08,1380.99,600.12,596.82,25.22,0000 0000 0000 0000 000000
2017-02-12 12:29:25,0.25,12.66,0.00,24.07,26.87,30.17,14.63,56.20,1021.48,2026.99,1056.17,1233.50,1380.14,599.94,596.64,25.27,0000 0000 0000 0000 000000
2017-02-12 12:34:26,0.25,12.67,0.00,24.10,26.87,30.16,14.53,56.17,1021.50,2026.99,1055.16,1232.73,1379.37,599.84,596.61,25.32,0000 0000 0000 0000 000000
2017-02-12 12:39:27,0.20,12.68,0.00,24.07,26.87,30.16,14.62,56.22,1021.51,2026.99,1054.02,1232.01,1378.37,600.16,596.83,25.37,0000 0000 0000 0000 000000
2017-02-12 12:44:28,0.22,12.69,0.00,24.05,26.87,30.15,14.51,56.20,1021.50,2026.99,1053.17,1231.38,1377.78,599.93,596.58,25.42,0000 0000 0000 0000 000000
2017-02-12 12:49:29,0.19,12.70,0.00,24.06,26.87,30.15,14.66,56.13,1021.43,2026.99,1052.37,1230.79,1376.92,600.33,596.99,25.47,0000 0000 0000 0000 000000